• In Belarus
  • List of Countries
  • For 7 days
  • Water Temperature
  • Weather Map
  • Weather Widgets
  • user-avatar
    Login

    Hourly Weather Jish

    Today, 2 June, Tuesday

    Time Temperature Precipitation Wind Pressure Humidity
    00:00 +20°C° 0 mm 1 mps 692 mmHg 41%
    01:00 +20°C° 0 mm 1 mps 692 mmHg 40%
    02:00 +19°C° 0 mm 2 mps 691 mmHg 38%
    03:00 +19°C° 0 mm 2 mps 691 mmHg 38%
    04:00 +20°C° 0 mm 2 mps 691 mmHg 38%
    05:00 +20°C° 0 mm 3 mps 691 mmHg 38%
    06:00 +22°C° 0 mm 3 mps 691 mmHg 35%
    07:00 +25°C° 0 mm 3 mps 692 mmHg 31%
    08:00 +27°C° 0 mm 3 mps 692 mmHg 27%
    09:00 +28°C° 0 mm 5 mps 693 mmHg 27%
    10:00 +29°C° 0 mm 7 mps 693 mmHg 27%
    11:00 +31°C° 0 mm 8 mps 693 mmHg 27%
    12:00 +28°C° 0 mm 8 mps 693 mmHg 32%
    13:00 +27°C° 0 mm 8 mps 692 mmHg 38%
    14:00 +24°C° 0 mm 7 mps 692 mmHg 43%
    15:00 +23°C° 0 mm 7 mps 692 mmHg 46%
    16:00 +22°C° 0 mm 6 mps 692 mmHg 49%
    17:00 +21°C° 0 mm 5 mps 692 mmHg 53%
    18:00 +19°C° 0 mm 4 mps 692 mmHg 63%
    19:00 +18°C° 0 mm 3 mps 692 mmHg 74%
    20:00 +16°C° 0 mm 2 mps 692 mmHg 85%
    21:00 +16°C° 0 mm 2 mps 693 mmHg 84%
    22:00 +16°C° 0 mm 2 mps 693 mmHg 83%
    23:00 +16°C° 0 mm 2 mps 693 mmHg 81%

    Tomorrow, 3 June, Wednesday

    Time Temperature Precipitation Wind Pressure Humidity
    00:00 +15°C° 0 mm 2 mps 693 mmHg 83%
    01:00 +15°C° 0 mm 2 mps 692 mmHg 84%
    02:00 +14°C° 0 mm 2 mps 692 mmHg 86%
    03:00 +14°C° 0 mm 1 mps 692 mmHg 86%
    04:00 +14°C° 0 mm 1 mps 693 mmHg 87%
    05:00 +14°C° 0 mm 1 mps 693 mmHg 88%
    06:00 +15°C° 0 mm 1 mps 693 mmHg 78%
    07:00 +17°C° 0 mm 2 mps 694 mmHg 69%
    08:00 +18°C° 0 mm 2 mps 694 mmHg 59%
    09:00 +20°C° 0 mm 3 mps 694 mmHg 54%
    10:00 +21°C° 0 mm 4 mps 695 mmHg 49%
    11:00 +22°C° 0 mm 5 mps 695 mmHg 43%
    12:00 +22°C° 0 mm 5 mps 695 mmHg 42%
    13:00 +23°C° 0 mm 5 mps 695 mmHg 40%
    14:00 +23°C° 0 mm 5 mps 695 mmHg 38%
    15:00 +22°C° 0 mm 5 mps 695 mmHg 40%
    16:00 +21°C° 0 mm 4 mps 695 mmHg 41%
    17:00 +21°C° 0 mm 3 mps 694 mmHg 42%
    18:00 +19°C° 0 mm 3 mps 694 mmHg 51%
    19:00 +17°C° 0 mm 2 mps 694 mmHg 60%
    20:00 +15°C° 0 mm 1 mps 694 mmHg 69%
    21:00 +15°C° 0 mm 1 mps 694 mmHg 68%
    22:00 +15°C° 0 mm 1 mps 694 mmHg 67%
    23:00 +14°C° 0 mm 1 mps 694 mmHg 65%

    Day after tomorrow, 4 June, Thursday

    Time Temperature Precipitation Wind Pressure Humidity
    00:00 +14°C° 0 mm 1 mps 694 mmHg 60%
    01:00 +13°C° 0 mm 0 mps 693 mmHg 56%
    02:00 +13°C° 0 mm 0 mps 693 mmHg 51%
    03:00 +13°C° 0 mm 0 mps 693 mmHg 48%
    04:00 +13°C° 0 mm 0 mps 694 mmHg 44%
    05:00 +13°C° 0 mm 0 mps 694 mmHg 41%
    06:00 +18°C° 0 mm 1 mps 695 mmHg 36%
    07:00 +20°C° 0 mm 1 mps 695 mmHg 30%
    08:00 +23°C° 0 mm 1 mps 696 mmHg 25%
    09:00 +24°C° 0 mm 2 mps 696 mmHg 25%
    10:00 +26°C° 0 mm 2 mps 697 mmHg 26%
    11:00 +27°C° 0 mm 3 mps 697 mmHg 27%
    12:00 +28°C° 0 mm 3 mps 697 mmHg 28%
    13:00 +28°C° 0 mm 4 mps 697 mmHg 29%
    14:00 +28°C° 0 mm 4 mps 696 mmHg 30%
    15:00 +27°C° 0 mm 4 mps 696 mmHg 32%
    16:00 +26°C° 0 mm 4 mps 696 mmHg 34%
    17:00 +26°C° 0 mm 4 mps 696 mmHg 36%
    18:00 +24°C° 0 mm 3 mps 696 mmHg 42%
    19:00 +21°C° 0 mm 3 mps 696 mmHg 47%
    20:00 +19°C° 0 mm 2 mps 696 mmHg 52%
    21:00 +18°C° 0 mm 2 mps 696 mmHg 53%
    22:00 +18°C° 0 mm 2 mps 696 mmHg 53%
    23:00 +18°C° 0 mm 2 mps 696 mmHg 53%

    5 June, Friday

    Time Temperature Precipitation Wind Pressure Humidity
    00:00 +18°C° 0 mm 1 mps 696 mmHg 55%
    01:00 +18°C° 0 mm 1 mps 695 mmHg 57%
    02:00 +16°C° 0 mm 1 mps 695 mmHg 59%
    03:00 +16°C° 0 mm 1 mps 695 mmHg 60%
    04:00 +16°C° 0 mm 1 mps 695 mmHg 61%
    05:00 +16°C° 0 mm 1 mps 696 mmHg 63%
    06:00 +19°C° 0 mm 1 mps 696 mmHg 54%
    07:00 +21°C° 0 mm 1 mps 697 mmHg 46%
    08:00 +24°C° 0 mm 1 mps 697 mmHg 38%
    09:00 +25°C° 0 mm 2 mps 698 mmHg 35%
    10:00 +27°C° 0 mm 2 mps 698 mmHg 32%
    11:00 +28°C° 0 mm 3 mps 698 mmHg 29%
    12:00 +28°C° 0 mm 3 mps 698 mmHg 29%
    13:00 +29°C° 0 mm 4 mps 697 mmHg 30%
    14:00 +29°C° 0 mm 4 mps 697 mmHg 30%
    15:00 +28°C° 0 mm 4 mps 697 mmHg 30%
    16:00 +27°C° 0 mm 4 mps 696 mmHg 30%
    17:00 +27°C° 0 mm 4 mps 696 mmHg 30%
    18:00 +25°C° 0 mm 3 mps 696 mmHg 35%
    19:00 +22°C° 0 mm 3 mps 696 mmHg 40%
    20:00 +20°C° 0 mm 3 mps 696 mmHg 45%
    21:00 +19°C° 0 mm 2 mps 696 mmHg 44%
    22:00 +19°C° 0 mm 2 mps 696 mmHg 43%
    23:00 +19°C° 0 mm 1 mps 696 mmHg 43%

    6 June, Saturday

    Time Temperature Precipitation Wind Pressure Humidity
    00:00 +19°C° 0 mm 1 mps 695 mmHg 47%
    01:00 +18°C° 0 mm 1 mps 695 mmHg 51%
    02:00 +16°C° 0 mm 1 mps 695 mmHg 55%
    03:00 +16°C° 0 mm 1 mps 695 mmHg 54%
    04:00 +16°C° 0 mm 1 mps 695 mmHg 54%
    05:00 +15°C° 0 mm 0 mps 694 mmHg 53%
    06:00 +20°C° 0 mm 1 mps 695 mmHg 46%
    07:00 +23°C° 0 mm 1 mps 696 mmHg 38%
    08:00 +26°C° 0 mm 1 mps 697 mmHg 31%
    09:00 +27°C° 0 mm 2 mps 697 mmHg 30%
    10:00 +29°C° 0 mm 2 mps 697 mmHg 28%
    11:00 +30°C° 0 mm 3 mps 697 mmHg 27%
    12:00 +30°C° 0 mm 3 mps 697 mmHg 28%
    13:00 +30°C° 0 mm 4 mps 697 mmHg 29%
    14:00 +32°C° 0 mm 4 mps 696 mmHg 30%
    15:00 +30°C° 0 mm 4 mps 696 mmHg 31%
    16:00 +29°C° 0 mm 3 mps 696 mmHg 32%
    17:00 +28°C° 0 mm 3 mps 695 mmHg 34%
    18:00 +26°C° 0 mm 3 mps 695 mmHg 39%
    19:00 +24°C° 0 mm 2 mps 694 mmHg 44%
    20:00 +21°C° 0 mm 2 mps 694 mmHg 49%
    21:00 +21°C° 0 mm 1 mps 694 mmHg 50%
    22:00 +20°C° 0 mm 1 mps 694 mmHg 50%
    23:00 +20°C° 0 mm 1 mps 694 mmHg 51%

    7 June, Sunday

    Time Temperature Precipitation Wind Pressure Humidity
    00:00 +19°C° 0 mm 1 mps 694 mmHg 55%
    01:00 +19°C° 0 mm 1 mps 694 mmHg 59%
    02:00 +18°C° 0 mm 1 mps 693 mmHg 64%
    03:00 +18°C° 0 mm 1 mps 694 mmHg 61%
    04:00 +19°C° 0 mm 1 mps 694 mmHg 59%
    05:00 +19°C° 0 mm 1 mps 694 mmHg 56%
    06:00 +22°C° 0 mm 1 mps 694 mmHg 48%
    07:00 +25°C° 0 mm 1 mps 695 mmHg 39%
    08:00 +28°C° 0 mm 1 mps 696 mmHg 31%
    09:00 +29°C° 0 mm 2 mps 696 mmHg 30%
    10:00 +31°C° 0 mm 2 mps 696 mmHg 28%
    11:00 +33°C° 0 mm 3 mps 697 mmHg 27%
    12:00 +33°C° 0 mm 3 mps 696 mmHg 26%
    13:00 +34°C° 0 mm 4 mps 696 mmHg 26%
    14:00 +34°C° 0 mm 4 mps 695 mmHg 26%
    15:00 +33°C° 0 mm 4 mps 695 mmHg 27%
    16:00 +32°C° 0 mm 4 mps 694 mmHg 28%
    17:00 +30°C° 0 mm 4 mps 694 mmHg 29%
    18:00 +27°C° 0 mm 4 mps 694 mmHg 35%
    19:00 +25°C° 0 mm 3 mps 693 mmHg 40%
    20:00 +22°C° 0 mm 3 mps 693 mmHg 45%
    21:00 +21°C° 0 mm 2 mps 693 mmHg 47%
    22:00 +20°C° 0 mm 2 mps 693 mmHg 50%
    23:00 +21°C° 0 mm 1 mps 693 mmHg 52%
    Show more